Home   Weather   Osterholz-Scharmbeck   Past weeks

Flag for Germany Past Weather in Osterholz-Scharmbeck, Lower Saxony, Germany — Yesterday and Last 2 Weeks

Now
46 °F

Partly sunny.


Feels Like: 39 °F
Forecast: 35 / 50 °F
Wind: 18 mph from Northwest

Location: Bremen Airport

Current Time: Apr 23, 2017 at 12:14:44 pm

Latest Report: Apr 23, 2017 at 11:20 am


Visibility: N/A

Pressure: 30.18 "Hg

Humidity: 62%

Dew Point: 34 °F

Location of Osterholz-ScharmbeckLocation

Past Weather in Osterholz-Scharmbeck — Graph

°F

Osterholz-Scharmbeck Temperature Yesterday

Maximum temperature yesterday: 50 °F (at 12:20 pm)
Minimum temperature yesterday: 37 °F (at 11:50 pm)
Average temperature yesterday: 43 °F

High & Low Weather Summary for the Past Weeks

 TemperatureHumidityPressure
High66 °F (Apr 9, 4:50 pm)100% (Apr 9, 12:20 am)30.63 "Hg (Apr 9, 12:20 am)
Low27 °F (Apr 20, 6:20 am)35% (Apr 20, 5:50 pm)29.77 "Hg (Apr 15, 5:50 am)
Average45 °F74%30.14 "Hg
* Reported Apr 8 10:20 am — Apr 23 10:50 am, Osterholz-Scharmbeck, Weather by CustomWeather, © 2017

Note: Actual official high and low records may vary slightly from our data, if they occured in-between our weather recording intervals... More about our weather records

Advertising

Osterholz-Scharmbeck Weather History for the Previous 24 Hours

Scroll right to see more
 ConditionsComfort  
Time TempWeatherWind HumidityBarometerVisibility
10:50 am
Sun, Apr 23
45 °FPartly sunny.13 mph71%30.18 "HgN/A
10:20 am45 °FPartly sunny.16 mph71%30.18 "HgN/A
9:50 am43 °FPartly sunny.16 mph76%30.18 "HgN/A
9:20 am43 °FPartly sunny.15 mph76%30.18 "HgN/A
8:50 am43 °FPartly sunny.14 mph76%30.18 "HgN/A
8:20 am43 °FScattered clouds.14 mph76%30.18 "HgN/A
7:50 am39 °FPartly sunny.14 mph87%30.15 "HgN/A
7:20 am39 °FSprinkles. Partly sunny.12 mph87%30.18 "HgN/A
6:50 am39 °FSprinkles. Partly sunny.13 mph87%30.18 "HgN/A
6:20 am39 °FScattered showers. Partly sunny.10 mph87%30.15 "HgN/A
5:50 am39 °FPassing clouds.12 mph87%30.15 "HgN/A
5:20 am37 °FPassing clouds.12 mph93%30.15 "HgN/A
4:50 am37 °FPassing clouds.8 mph93%30.15 "HgN/A
4:20 am39 °FSprinkles. Passing clouds.9 mph87%30.15 "HgN/A
3:50 am37 °FPassing clouds.12 mph93%30.15 "HgN/A
3:20 am37 °FPassing clouds.10 mph93%30.15 "HgN/A
2:50 am39 °FPassing clouds.13 mph87%30.15 "HgN/A
2:20 am37 °FPassing clouds.10 mph93%30.15 "HgN/A
1:50 am37 °FPassing clouds.10 mph93%30.15 "HgN/A
1:20 am39 °FPassing clouds.12 mph87%30.15 "HgN/A
12:50 am37 °FPassing clouds.10 mph93%30.15 "HgN/A
12:20 am37 °FPassing clouds.9 mph93%30.15 "HgN/A
11:50 pm
Sat, Apr 22
37 °FPassing clouds.8 mph93%30.18 "HgN/A
11:20 pm39 °FSprinkles. Passing clouds.10 mph87%30.18 "HgN/A
10:50 pm41 °FSprinkles. Passing clouds.12 mph87%30.18 "HgN/A
10:20 pm41 °FSprinkles. Passing clouds.13 mph87%30.15 "HgN/A
9:50 pm41 °FSprinkles. Passing clouds.14 mph81%30.18 "HgN/A
9:20 pm41 °FPassing clouds.15 mph81%30.15 "HgN/A
8:50 pm41 °FScattered showers. Passing clouds.13 mph81%30.15 "HgN/A
8:20 pm43 °FSprinkles. Scattered clouds.20 mph81%30.15 "HgN/A
7:50 pm45 °FSprinkles. Scattered clouds.16 mph71%30.15 "HgN/A
7:20 pm45 °FScattered clouds.17 mph76%30.15 "HgN/A
6:50 pm46 °FScattered clouds.21 mph62%30.15 "HgN/A
6:20 pm46 °FScattered clouds.20 mph66%30.15 "HgN/A
5:50 pm46 °FScattered clouds.20 mph62%30.15 "HgN/A
5:20 pm46 °FScattered clouds.20 mph62%30.15 "HgN/A
4:50 pm46 °FBroken clouds.16 mph66%30.15 "HgN/A
4:20 pm46 °FBroken clouds.17 mph66%30.15 "HgN/A
3:50 pm46 °FBroken clouds.22 mph66%30.15 "HgN/A
3:20 pm48 °FPartly sunny.17 mph66%30.15 "HgN/A
2:50 pm43 °FPartly sunny.17 mph76%30.18 "HgN/A
1:50 pm46 °FScattered clouds.15 mph66%30.18 "HgN/A
1:20 pm43 °FSprinkles. Scattered clouds.26 mph71%30.18 "HgN/A
12:50 pm48 °FScattered clouds.20 mph58%30.18 "HgN/A
12:20 pm50 °FBroken clouds.17 mph50%30.18 "HgN/A
Weather by CustomWeather, © 2017

See weather overviewHow to use our weather pages